Lid_Strength_Index
8 8 8 7 6 4 2 1 1 1 1 2 2 2 2 2 1 2 2 2 2 2 2 2 3 2 2 2 3 3 3 3 4 4 6 8 10 9 11 10 11 11 10
8 9 9 8 7 6 5 3 1 1 1 1 2 2 2 2 2 2 2 2 2 3 3 2 2 3 2 2 2 3 3 3 4 5 8 10 10 10 11 12 12 12 11
9 8 8 8 8 8 7 5 4 3 2 1 2 2 2 2 2 2 2 2 2 2 2 3 3 3 3 2 2 3 3 4 4 5 9 11 12 12 13 13 13 13 12
10 10 9 9 9 9 9 8 6 5 3 2 1 1 1 1 2 2 2 2 2 2 2 2 3 3 3 3 3 3 4 6 8 12 14 13 13 14 14 15 14 15 14
11 11 11 10 10 11 10 10 10 8 6 5 3 2 2 1 2 2 2 2 2 3 3 3 3 5 8 5 4 5 6 8 12 13 14 15 14 15 14 14 14 15 14
11 11 11 11 12 12 12 11 11 11 10 8 7 5 3 2 5 7 5 2 3 3 4 4 4 10 9 9 8 7 6 7 10 11 13 13 14 13 15 14 15 15 15
11 11 11 11 11 11 11 12 12 12 11 11 9 8 6 5 6 7 9 4 3 4 4 4 8 9 10 7 9 10 10 9 8 8 12 11 12 13 13 14 15 15 14
13 12 12 12 13 12 12 12 11 11 11 10 9 9 8 7 7 7 8 4 3 3 4 6 7 8 10 10 11 11 11 11 10 9 9 11 11 12 12 13 14 15 16
15 14 13 14 16 15 14 13 12 12 11 11 10 10 9 9 8 8 8 8 7 8 7 6 6 9 10 11 11 13 13 13 11 10 10 10 11 11 13 14 15 15 21
16 15 16 17 16 16 15 13 12 12 12 12 12 11 11 10 9 9 9 9 10 9 12 12 13 9 11 10 11 12 13 14 14 14 13 12 12 12 12 13 14 15 21
16 18 18 18 18 16 14 13 13 12 12 12 12 11 11 10 10 9 8 9 9 10 10 11 12 10 10 10 9 11 11 13 12 13 14 14 14 14 14 15 14 15 21
18 19 19 19 17 15 15 15 14 13 13 12 12 11 10 10 10 9 9 9 8 9 10 10 12 11 10 10 10 10 11 12 13 14 14 15 14 15 15 15 16 17 18
20 21 21 20 19 18 17 15 14 13 13 13 12 12 11 10 10 9 9 9 8 9 9 10 10 10 10 10 10 11 12 13 14 14 14 15 14 14 15 16 15 16 16
23 22 21 21 20 19 19 18 17 16 14 13 12 12 12 11 10 10 11 10 10 10 11 11 11 10 10 10 12 11 13 13 13 14 14 14 15 16 16 16 16 16 16
23 22 22 21 21 21 19 19 18 16 13 13 12 11 12 12 10 9 10 11 10 10 12 12 12 12 12 12 12 12 13 13 14 14 15 16 16 16 16 15 15 16 18
23 22 22 22 21 21 20 20 16 14 13 11 10 9 10 9 9 9 9 9 9 9 12 12 12 12 13 13 13 13 14 13 13 14 15 15 15 16 16 16 17 17 19
23 22 22 21 20 20 20 20 21 17 12 11 9 8 8 9 9 9 9 8 9 9 11 11 12 12 12 13 13 13 14 13 13 14 15 15 15 15 16 17 18 19 20
22 21 20 20 19 19 18 18 17 17 16 13 10 9 8 8 9 9 9 9 10 10 11 11 12 12 12 13 13 14 14 14 14 14 15 15 16 16 18 18 18 19 19
22 22 21 21 20 19 19 18 18 16 16 15 12 9 9 8 8 8 9 10 11 11 11 11 11 12 12 13 13 13 14 15 15 15 16 17 17 17 18 18 18 19 20
23 22 22 21 21 20 20 20 20 20 19 18 18 18 16 15 11 10 10 10 10 11 11 11 11 12 12 13 13 14 15 15 16 17 17 17 17 17 18 19 20 21 21
23 23 23 22 22 22 21 22 21 21 21 21 21 19 15 19 20 18 14 11 11 10 11 11 11 12 13 13 14 16 16 17 17 18 18 19 19 20 20 20 21 21 23
23 24 23 23 23 23 23 23 23 23 23 23 23 22 18 21 22 22 22 22 20 18 16 16 17 17 17 17 17 17 18 19 20 20 21 21 22 22 22 22 22 23 24
24 24 24 24 23 24 24 24 24 24 24 24 24 24 23 23 23 23 23 23 22 22 21 20 20 21 20 19 19 19 20 20 20 21 22 23 23 22 22 23 23 24 25
26 26 26 26 26 26 25 25 24 24 24 24 24 25 25 25 24 24 24 24 23 23 23 23 23 23 23 23 23 22 22 22 22 22 22 21 22 23 23 23 24 24 25
26 26 26 27 27 27 27 27 27 26 26 25 25 25 25 25 26 26 25 24 24 24 24 25 25 24 25 25 25 24 22 23 22 21 21 21 22 23 23 24 24 25 26
27 27 28 27 28 28 28 28 28 28 28 28 27 26 26 26 25 26 26 26 25 25 25 25 25 25 25 25 25 24 23 22 23 22 22 22 23 23 24 24 25 25 26